TCCKM LCEN-LTAC

Flight info

Callsign TCCKM
Flight time 0h 58m
Altitude 40000
Route GIRNE DCT DOREN UA28 TELVO
Aircraft CL60/M-SBDE1E2E3FGHIJ1J4J5J7M3RWXYZ/LB1V1D1

Departure

Time 2026-05-06 05:16
Airport Ercan International Airport (LCEN)

Arrival

Time 2026-05-06 06:14
Airport Esenboğa International Airport (LTAC)
Time Latitude Longitude Altitude Speed Heading
2026-05-06 04:42 35.15137 33.49808 402 ft 0 kts 202°
2026-05-06 05:07 35.15147 33.49812 403 ft 2 kts 202°
2026-05-06 05:07 35.15161 33.49819 403 ft 2 kts 202°
2026-05-06 05:08 35.15174 33.49826 403 ft 2 kts 202°
2026-05-06 05:08 35.15189 33.49833 403 ft 2 kts 202°
2026-05-06 05:08 35.15197 33.49836 403 ft 2 kts 188°
2026-05-06 05:08 35.15212 33.49834 403 ft 2 kts 153°
2026-05-06 05:09 35.15223 33.49822 403 ft 2 kts 120°
2026-05-06 05:09 35.15225 33.49815 403 ft 0 kts 111°
2026-05-06 05:10 35.15224 33.49820 403 ft 2 kts 112°
2026-05-06 05:11 35.15210 33.49860 403 ft 8 kts 112°
2026-05-06 05:11 35.15182 33.49946 403 ft 12 kts 112°
2026-05-06 05:11 35.15144 33.50060 403 ft 16 kts 111°
2026-05-06 05:11 35.15097 33.50205 403 ft 19 kts 112°
2026-05-06 05:12 35.15041 33.50375 403 ft 23 kts 112°
2026-05-06 05:12 35.14984 33.50550 403 ft 14 kts 113°
2026-05-06 05:12 35.14984 33.50627 403 ft 10 kts 43°
2026-05-06 05:12 35.15061 33.50668 403 ft 14 kts 22°
2026-05-06 05:13 35.15124 33.50743 403 ft 14 kts 103°
2026-05-06 05:13 35.15082 33.50870 403 ft 17 kts 112°
2026-05-06 05:13 35.15031 33.51024 403 ft 21 kts 111°
2026-05-06 05:13 35.14967 33.51221 403 ft 28 kts 112°
2026-05-06 05:14 35.14891 33.51452 403 ft 30 kts 112°
2026-05-06 05:14 35.14809 33.51705 403 ft 32 kts 111°
2026-05-06 05:14 35.14722 33.51968 403 ft 34 kts 111°
2026-05-06 05:14 35.14630 33.52248 403 ft 36 kts 112°
2026-05-06 05:15 35.14533 33.52539 403 ft 37 kts 113°
2026-05-06 05:15 35.14500 33.52668 403 ft 2 kts 119°
2026-05-06 05:15 35.14499 33.52644 403 ft 7 kts 303°
2026-05-06 05:15 35.14538 33.52530 404 ft 39 kts 292°
2026-05-06 05:16 35.14775 33.51808 404 ft 141 kts 291°
2026-05-06 05:16 35.15187 33.50536 1080 ft 173 kts 291°
2026-05-06 05:16 35.15736 33.49165 1986 ft 201 kts 302°
2026-05-06 05:16 35.16647 33.47804 2707 ft 211 kts 316°
2026-05-06 05:17 35.17695 33.46574 3327 ft 209 kts 316°
2026-05-06 05:17 35.18769 33.45246 3823 ft 242 kts 315°
2026-05-06 05:17 35.19997 33.43731 4994 ft 262 kts 315°
2026-05-06 05:17 35.21266 33.42137 6497 ft 267 kts 314°
2026-05-06 05:18 35.22530 33.40519 7954 ft 275 kts 313°
2026-05-06 05:18 35.23818 33.38873 9487 ft 278 kts 313°
2026-05-06 05:18 35.25136 33.37190 10953 ft 282 kts 313°
2026-05-06 05:18 35.26548 33.35575 12348 ft 286 kts 323°
2026-05-06 05:19 35.28323 33.34510 13645 ft 295 kts 342°
2026-05-06 05:19 35.30377 33.34328 14894 ft 305 kts
2026-05-06 05:19 35.32329 33.35346 16072 ft 319 kts 34°
2026-05-06 05:19 35.33733 33.37475 17140 ft 333 kts 59°
2026-05-06 05:20 35.34869 33.39949 18128 ft 337 kts 48°
2026-05-06 05:20 35.36619 33.41730 19111 ft 330 kts 20°
2026-05-06 05:20 35.38835 33.42293 20070 ft 323 kts 352°
2026-05-06 05:20 35.41023 33.41827 20978 ft 325 kts 343°
2026-05-06 05:21 35.43251 33.41227 21903 ft 331 kts 343°
2026-05-06 05:21 35.45499 33.40628 22828 ft 334 kts 344°
2026-05-06 05:21 35.47782 33.40030 23735 ft 339 kts 344°
2026-05-06 05:21 35.50103 33.39432 24594 ft 343 kts 344°
2026-05-06 05:22 35.52434 33.38845 25431 ft 346 kts 344°
2026-05-06 05:22 35.54807 33.38271 26194 ft 352 kts 345°
2026-05-06 05:22 35.57200 33.37725 26925 ft 356 kts 345°
2026-05-06 05:22 35.59678 33.37162 27629 ft 360 kts 345°
2026-05-06 05:23 35.62140 33.36603 28293 ft 364 kts 345°
2026-05-06 05:23 35.64640 33.35994 28930 ft 367 kts 343°
2026-05-06 05:23 35.69685 33.34634 30163 ft 374 kts 343°
2026-05-06 05:24 35.72238 33.33945 30714 ft 378 kts 343°
2026-05-06 05:24 35.74862 33.33236 31230 ft 382 kts 343°
2026-05-06 05:24 35.77500 33.32524 31714 ft 386 kts 343°
2026-05-06 05:24 35.80171 33.31802 32185 ft 389 kts 343°
2026-05-06 05:25 35.82825 33.31085 32639 ft 392 kts 343°
2026-05-06 05:25 35.85527 33.30354 33046 ft 396 kts 343°
2026-05-06 05:25 35.88244 33.29620 33469 ft 398 kts 343°
2026-05-06 05:25 35.90986 33.28880 33875 ft 401 kts 343°
2026-05-06 05:26 35.93759 33.28388 34275 ft 406 kts 352°
2026-05-06 05:26 35.96589 33.28396 34685 ft 409 kts 357°
2026-05-06 05:26 35.99428 33.28516 35070 ft 410 kts 357°
2026-05-06 05:26 36.02279 33.28631 35439 ft 410 kts 357°
2026-05-06 05:27 36.05132 33.28674 35784 ft 408 kts 354°
2026-05-06 05:27 36.07947 33.28620 36180 ft 408 kts 354°
2026-05-06 05:27 36.10774 33.28564 36562 ft 408 kts 354°
2026-05-06 05:27 36.13623 33.28508 36919 ft 408 kts 354°
2026-05-06 05:28 36.16489 33.28471 37247 ft 410 kts 355°
2026-05-06 05:28 36.19349 33.28496 37558 ft 411 kts 355°
2026-05-06 05:28 36.22238 33.28525 37869 ft 412 kts 355°
2026-05-06 05:28 36.25071 33.28554 38182 ft 412 kts 355°
2026-05-06 05:29 36.27941 33.28583 38492 ft 412 kts 355°
2026-05-06 05:29 36.30820 33.28612 38771 ft 412 kts 355°
2026-05-06 05:29 36.33660 33.28640 39036 ft 412 kts 355°
2026-05-06 05:29 36.36530 33.28669 39318 ft 412 kts 355°
2026-05-06 05:30 36.39413 33.28698 39581 ft 412 kts 355°
2026-05-06 05:30 36.42278 33.28727 39830 ft 412 kts 355°
2026-05-06 05:30 36.45136 33.28757 40047 ft 412 kts 355°
2026-05-06 05:30 36.48025 33.28785 40069 ft 418 kts 355°
2026-05-06 05:31 36.53927 33.28842 40080 ft 428 kts 355°
2026-05-06 05:31 36.58042 33.28883 40074 ft 435 kts 356°
2026-05-06 05:32 36.62618 33.28928 40069 ft 441 kts 356°
2026-05-06 05:32 36.68824 33.28991 40081 ft 449 kts 356°
2026-05-06 05:33 36.75100 33.29056 40087 ft 455 kts 356°
2026-05-06 05:33 36.81475 33.29122 40094 ft 458 kts 356°
2026-05-06 05:34 36.87835 33.28972 40092 ft 455 kts 350°
2026-05-06 05:34 36.94093 33.28052 40081 ft 454 kts 349°
2026-05-06 05:35 37.00360 33.27127 40088 ft 452 kts 349°
2026-05-06 05:35 37.06623 33.26201 40078 ft 453 kts 349°
2026-05-06 05:36 37.12873 33.25277 40083 ft 453 kts 349°
2026-05-06 05:36 37.19159 33.24346 40087 ft 453 kts 349°
2026-05-06 05:37 37.25422 33.23418 40084 ft 452 kts 349°
2026-05-06 05:37 37.31653 33.22493 40078 ft 452 kts 349°
2026-05-06 05:38 37.37864 33.21569 40078 ft 451 kts 349°
2026-05-06 05:38 37.44095 33.20642 40073 ft 451 kts 349°
2026-05-06 05:39 37.50319 33.19714 40069 ft 450 kts 349°
2026-05-06 05:39 37.56533 33.18786 40070 ft 450 kts 349°
2026-05-06 05:40 37.62748 33.17856 40069 ft 450 kts 349°
2026-05-06 05:40 37.68940 33.16929 40068 ft 450 kts 349°
2026-05-06 05:41 37.75169 33.15993 40061 ft 449 kts 349°
2026-05-06 05:41 37.81374 33.15061 40061 ft 448 kts 349°
2026-05-06 05:42 37.87521 33.14135 40063 ft 448 kts 349°
2026-05-06 05:42 37.93711 33.13202 40047 ft 447 kts 349°
2026-05-06 05:43 37.99885 33.12269 40053 ft 447 kts 349°
2026-05-06 05:43 38.06069 33.11353 40053 ft 447 kts 350°
2026-05-06 05:44 38.12248 33.10455 40059 ft 447 kts 350°
2026-05-06 05:44 38.18440 33.09554 40057 ft 447 kts 350°
2026-05-06 05:45 38.24599 33.08655 40051 ft 447 kts 350°
2026-05-06 05:45 38.30763 33.07755 40055 ft 446 kts 350°
2026-05-06 05:46 38.36930 33.06853 40055 ft 446 kts 350°
2026-05-06 05:46 38.43092 33.05949 40059 ft 447 kts 350°
2026-05-06 05:47 38.49249 33.05045 40057 ft 447 kts 350°
2026-05-06 05:47 38.55426 33.04136 40061 ft 446 kts 350°
2026-05-06 05:48 38.61590 33.03228 40056 ft 446 kts 350°
2026-05-06 05:48 38.67743 33.02320 40057 ft 446 kts 350°
2026-05-06 05:49 38.73922 33.01406 40067 ft 446 kts 351°
2026-05-06 05:49 38.80086 33.00493 40055 ft 447 kts 351°
2026-05-06 05:50 38.86274 32.99574 40052 ft 447 kts 351°
2026-05-06 05:50 38.92424 32.98660 40047 ft 447 kts 351°
2026-05-06 05:51 38.98666 32.97731 40042 ft 446 kts 350°
2026-05-06 05:51 39.01725 32.97275 39708 ft 443 kts 350°
2026-05-06 05:51 39.04776 32.96821 39161 ft 439 kts 350°
2026-05-06 05:52 39.07824 32.96366 38607 ft 435 kts 350°
2026-05-06 05:52 39.10797 32.95923 38097 ft 432 kts 351°
2026-05-06 05:52 39.13794 32.95474 37476 ft 432 kts 351°
2026-05-06 05:52 39.16743 32.95032 36919 ft 430 kts 351°
2026-05-06 05:53 39.19725 32.94585 36344 ft 427 kts 351°
2026-05-06 05:53 39.22677 32.94153 35771 ft 425 kts 351°
2026-05-06 05:53 39.25579 32.93755 35221 ft 421 kts 352°
2026-05-06 05:53 39.28462 32.93361 34676 ft 417 kts 352°
2026-05-06 05:54 39.31319 32.92970 34124 ft 414 kts 352°
2026-05-06 05:54 39.34164 32.92581 33566 ft 411 kts 352°
2026-05-06 05:54 39.37025 32.92422 33023 ft 408 kts 359°
2026-05-06 05:54 39.39847 32.92793 32483 ft 406 kts
2026-05-06 05:55 39.42602 32.93427 31944 ft 401 kts
2026-05-06 05:55 39.45321 32.94057 31421 ft 397 kts
2026-05-06 05:55 39.48016 32.94680 30890 ft 392 kts
2026-05-06 05:55 39.50676 32.95296 30339 ft 386 kts
2026-05-06 05:56 39.53276 32.95898 29869 ft 378 kts
2026-05-06 05:56 39.55835 32.96491 29374 ft 371 kts
2026-05-06 05:56 39.58350 32.97075 28884 ft 365 kts
2026-05-06 05:56 39.60810 32.97649 28415 ft 359 kts
2026-05-06 05:57 39.63186 32.98666 27945 ft 359 kts 22°
2026-05-06 05:57 39.65364 33.00147 27463 ft 355 kts 24°
2026-05-06 05:57 39.67527 33.01632 26993 ft 350 kts 23°
2026-05-06 05:57 39.69673 33.03102 26534 ft 346 kts 24°
2026-05-06 05:58 39.71776 33.04544 26083 ft 341 kts 23°
2026-05-06 05:58 39.73848 33.05965 25634 ft 337 kts 23°
2026-05-06 05:58 39.75912 33.07380 25191 ft 333 kts 23°
2026-05-06 05:58 39.77964 33.08787 24760 ft 334 kts 23°
2026-05-06 05:59 39.80029 33.10203 24299 ft 335 kts 23°
2026-05-06 05:59 39.82070 33.11606 23856 ft 333 kts 23°
2026-05-06 05:59 39.84117 33.13012 23422 ft 331 kts 24°
2026-05-06 05:59 39.86145 33.14406 22994 ft 328 kts 24°
2026-05-06 06:00 39.88128 33.15772 22572 ft 323 kts 24°
2026-05-06 06:00 39.90094 33.17125 22140 ft 319 kts 24°
2026-05-06 06:00 39.92095 33.18300 21695 ft 311 kts 12°
2026-05-06 06:00 39.94197 33.18606 21244 ft 303 kts 354°
2026-05-06 06:01 39.96232 33.17964 20782 ft 299 kts 336°
2026-05-06 06:01 39.97961 33.16488 20318 ft 298 kts 318°
2026-05-06 06:01 39.99277 33.14438 19863 ft 298 kts 308°
2026-05-06 06:01 40.00517 33.12291 19414 ft 295 kts 313°
2026-05-06 06:02 40.02093 33.10656 18953 ft 290 kts 333°
2026-05-06 06:02 40.03994 33.09870 18468 ft 287 kts 353°
2026-05-06 06:02 40.05978 33.10007 17916 ft 285 kts 12°
2026-05-06 06:02 40.07766 33.11017 17364 ft 285 kts 31°
2026-05-06 06:03 40.09374 33.12524 16820 ft 283 kts 34°
2026-05-06 06:03 40.10947 33.14033 16292 ft 280 kts 34°
2026-05-06 06:03 40.12521 33.15537 15763 ft 278 kts 34°
2026-05-06 06:03 40.14074 33.17022 15231 ft 276 kts 34°
2026-05-06 06:04 40.15601 33.18483 14705 ft 275 kts 34°
2026-05-06 06:04 40.17147 33.19962 14175 ft 273 kts 35°
2026-05-06 06:04 40.18655 33.21407 13660 ft 272 kts 35°
2026-05-06 06:04 40.20170 33.22860 13150 ft 270 kts 35°
2026-05-06 06:05 40.21689 33.24316 12632 ft 269 kts 35°
2026-05-06 06:05 40.23190 33.25757 12119 ft 267 kts 36°
2026-05-06 06:05 40.24680 33.27187 11606 ft 266 kts 36°
2026-05-06 06:05 40.26150 33.28600 11097 ft 264 kts 36°
2026-05-06 06:06 40.27634 33.30027 10581 ft 263 kts 36°
2026-05-06 06:06 40.29100 33.31437 10068 ft 262 kts 37°
2026-05-06 06:06 40.30554 33.32835 9564 ft 260 kts 37°
2026-05-06 06:06 40.32012 33.34182 9064 ft 258 kts 29°
2026-05-06 06:07 40.33725 33.34755 8546 ft 256 kts 356°
2026-05-06 06:07 40.35381 33.34026 8030 ft 253 kts 322°
2026-05-06 06:07 40.36430 33.32263 7520 ft 249 kts 289°
2026-05-06 06:07 40.36551 33.30043 7014 ft 247 kts 256°
2026-05-06 06:08 40.36027 33.27929 6609 ft 247 kts 249°
2026-05-06 06:08 40.35419 33.25832 6340 ft 241 kts 249°
2026-05-06 06:08 40.34821 33.23800 6223 ft 237 kts 249°
2026-05-06 06:08 40.34221 33.21779 6098 ft 240 kts 249°
2026-05-06 06:09 40.33406 33.19909 5974 ft 239 kts 225°
2026-05-06 06:09 40.32129 33.18483 5953 ft 239 kts 219°
2026-05-06 06:09 40.30837 33.17119 5956 ft 240 kts 219°
2026-05-06 06:09 40.29543 33.15751 5964 ft 231 kts 219°
2026-05-06 06:10 40.28367 33.14513 5986 ft 205 kts 217°
2026-05-06 06:10 40.27232 33.13453 5983 ft 200 kts 216°
2026-05-06 06:10 40.26115 33.12385 5965 ft 198 kts 216°
2026-05-06 06:10 40.24999 33.11314 5745 ft 201 kts 216°
2026-05-06 06:11 40.23886 33.10249 5506 ft 196 kts 216°
2026-05-06 06:11 40.22772 33.09181 5242 ft 197 kts 216°
2026-05-06 06:11 40.21696 33.08150 4960 ft 183 kts 216°
2026-05-06 06:11 40.20749 33.07244 4769 ft 158 kts 216°
2026-05-06 06:12 40.19916 33.06446 4590 ft 144 kts 216°
2026-05-06 06:12 40.19113 33.05679 4367 ft 141 kts 216°
2026-05-06 06:12 40.18340 33.04937 4161 ft 136 kts 217°
2026-05-06 06:12 40.17568 33.04196 3994 ft 140 kts 216°
2026-05-06 06:13 40.16781 33.03445 3814 ft 138 kts 216°
2026-05-06 06:13 40.16011 33.02711 3637 ft 136 kts 216°
2026-05-06 06:13 40.15247 33.01987 3455 ft 136 kts 216°
2026-05-06 06:13 40.14480 33.01252 3282 ft 137 kts 216°
2026-05-06 06:14 40.13720 33.00519 3141 ft 125 kts 215°
2026-05-06 06:14 40.13108 32.99940 3131 ft 85 kts 216°
2026-05-06 06:14 40.12754 32.99604 3127 ft 53 kts 216°
2026-05-06 06:14 40.12631 32.99492 3127 ft 5 kts 188°
2026-05-06 06:15 40.12595 32.99524 3128 ft 7 kts 121°
2026-05-06 06:15 40.12593 32.99599 3130 ft 8 kts 90°
2026-05-06 06:15 40.12593 32.99676 3133 ft 8 kts 90°
2026-05-06 06:15 40.12593 32.99755 3135 ft 9 kts 90°
2026-05-06 06:16 40.12592 32.99847 3137 ft 10 kts 89°
2026-05-06 06:16 40.12593 32.99946 3139 ft 11 kts 89°
2026-05-06 06:16 40.12592 33.00054 3142 ft 12 kts 90°
2026-05-06 06:16 40.12593 33.00174 3144 ft 13 kts 90°
2026-05-06 06:17 40.12552 33.00229 3146 ft 9 kts 172°
2026-05-06 06:17 40.12490 33.00240 3147 ft 10 kts 177°
2026-05-06 06:17 40.12447 33.00247 3148 ft 1 kts 191°
2026-05-06 06:17 40.12438 33.00225 3148 ft 4 kts 256°
2026-05-06 06:18 40.12432 33.00185 3147 ft 3 kts 258°
2026-05-06 06:18 40.12431 33.00181 3147 ft 0 kts 258°